Time,TemperatureF,DewpointF,PressureIn,WindDirection,WindDirectionDegrees,WindSpeedMPH,WindSpeedGustMPH,Humidity,HourlyPrecipIn,Conditions,Clouds,dailyrainin,SolarRadiationWatts/m^2,SoftwareType,DateUTC
2013-04-18 00:03:00,68.0,66.0,-100.00,SE,125,1.0,-999.0,90,0.00,,,-99.99,0.000000,,2013-04-18 04:03:00,
2013-04-18 00:13:00,69.0,66.0,-100.00,ENE,68,3.0,-999.0,91,0.00,,,-99.99,0.000000,,2013-04-18 04:13:00,
2013-04-18 00:23:00,69.0,66.0,-100.00,ENE,68,3.0,-999.0,91,0.00,,,-99.99,0.000000,,2013-04-18 04:23:00,
2013-04-18 00:33:00,69.0,66.0,-100.00,NE,43,4.0,-999.0,92,0.00,,,-99.99,0.000000,,2013-04-18 04:33:00,
2013-04-18 00:43:00,68.0,66.0,-100.00,NE,44,4.0,-999.0,93,0.00,,,-99.99,0.000000,,2013-04-18 04:43:00,
2013-04-18 00:53:00,68.0,66.0,-100.00,NE,44,4.0,-999.0,93,0.00,,,-99.99,0.000000,,2013-04-18 04:53:00,
2013-04-18 01:02:00,68.0,66.0,-100.00,ENE,57,3.0,-999.0,94,0.00,,,-99.99,0.000000,,2013-04-18 05:02:00,
2013-04-18 01:12:00,68.0,66.0,-100.00,ENE,58,3.0,-999.0,94,0.00,,,-99.99,0.100000,,2013-04-18 05:12:00,
2013-04-18 01:22:00,68.0,66.0,-100.00,ENE,58,3.0,-999.0,94,0.00,,,-99.99,0.100000,,2013-04-18 05:22:00,
2013-04-18 01:33:00,68.0,66.0,-100.00,ENE,77,4.0,-999.0,95,0.00,,,-99.99,0.100000,,2013-04-18 05:33:00,
2013-04-18 01:42:00,67.0,66.0,-100.00,East,81,5.0,-999.0,96,0.00,,,-99.99,0.200000,,2013-04-18 05:42:00,
2013-04-18 01:52:00,67.0,66.0,-100.00,East,81,5.0,-999.0,96,0.00,,,-99.99,0.200000,,2013-04-18 05:52:00,
2013-04-18 02:02:00,68.0,67.0,-100.00,ENE,66,3.0,-999.0,96,0.00,,,-99.99,0.200000,,2013-04-18 06:02:00,
2013-04-18 02:12:00,68.0,67.0,-100.00,NE,46,3.0,-999.0,97,0.00,,,-99.99,0.200000,,2013-04-18 06:12:00,
2013-04-18 02:22:00,68.0,67.0,-100.00,NE,46,3.0,-999.0,97,0.00,,,-99.99,0.200000,,2013-04-18 06:22:00,
2013-04-18 02:32:00,68.0,67.0,-100.00,NE,54,3.0,-999.0,97,0.00,,,-99.99,0.200000,,2013-04-18 06:32:00,
2013-04-18 02:42:00,67.0,67.0,-100.00,ENE,58,4.0,-999.0,97,0.00,,,-99.99,0.200000,,2013-04-18 06:42:00,
2013-04-18 02:52:00,67.0,67.0,-100.00,ENE,58,4.0,-999.0,97,0.00,,,-99.99,0.200000,,2013-04-18 06:52:00,
2013-04-18 03:02:00,67.0,67.0,-100.00,ENE,66,3.0,-999.0,97,0.00,,,-99.99,0.200000,,2013-04-18 07:02:00,
2013-04-18 03:12:00,67.0,66.0,-100.00,NE,56,3.0,-999.0,98,0.00,,,-99.99,0.300000,,2013-04-18 07:12:00,
2013-04-18 03:22:00,67.0,66.0,-100.00,NE,56,3.0,-999.0,98,0.00,,,-99.99,0.300000,,2013-04-18 07:22:00,
2013-04-18 03:32:00,67.0,66.0,-100.00,East,80,2.0,-999.0,98,0.00,,,-99.99,0.300000,,2013-04-18 07:32:00,
2013-04-18 03:42:00,66.0,66.0,-100.00,ENE,57,2.0,-999.0,98,0.00,,,-99.99,0.300000,,2013-04-18 07:42:00,
2013-04-18 03:53:00,66.0,66.0,-100.00,ENE,57,2.0,-999.0,98,0.00,,,-99.99,0.300000,,2013-04-18 07:53:00,
2013-04-18 04:02:00,66.0,66.0,-100.00,ENE,60,2.0,-999.0,98,0.00,,,-99.99,0.300000,,2013-04-18 08:02:00,
2013-04-18 04:12:00,66.0,66.0,-100.00,NNE,30,2.0,-999.0,98,0.00,,,-99.99,0.400000,,2013-04-18 08:12:00,
2013-04-18 04:22:00,66.0,66.0,-100.00,NNE,30,2.0,-999.0,98,0.00,,,-99.99,0.400000,,2013-04-18 08:22:00,
2013-04-18 04:32:00,66.0,65.0,-100.00,North,355,2.0,-999.0,99,0.00,,,-99.99,0.400000,,2013-04-18 08:32:00,
2013-04-18 04:42:00,66.0,66.0,-100.00,NNE,20,4.0,-999.0,99,0.00,,,-99.99,0.400000,,2013-04-18 08:42:00,
2013-04-18 04:52:00,66.0,66.0,-100.00,NNE,20,4.0,-999.0,99,0.00,,,-99.99,0.400000,,2013-04-18 08:52:00,
2013-04-18 05:02:00,66.0,66.0,-100.00,NE,38,2.0,-999.0,99,0.00,,,-99.99,0.400000,,2013-04-18 09:02:00,
2013-04-18 05:12:00,65.0,65.0,-100.00,ENE,59,2.0,-999.0,99,0.00,,,-99.99,0.400000,,2013-04-18 09:12:00,
2013-04-18 05:22:00,65.0,65.0,-100.00,ENE,59,2.0,-999.0,99,0.00,,,-99.99,0.400000,,2013-04-18 09:22:00,
2013-04-18 05:33:00,65.0,65.0,-100.00,NE,51,2.0,-999.0,99,0.00,,,-99.99,0.400000,,2013-04-18 09:33:00,
2013-04-18 05:43:00,64.0,64.0,-100.00,ENE,72,2.0,-999.0,99,0.00,,,-99.99,0.400000,,2013-04-18 09:43:00,
2013-04-18 05:53:00,64.0,64.0,-100.00,ENE,72,2.0,-999.0,99,0.00,,,-99.99,0.400000,,2013-04-18 09:53:00,
2013-04-18 06:03:00,65.0,65.0,-100.00,ENE,69,2.0,-999.0,99,0.00,,,-99.99,0.400000,,2013-04-18 10:03:00,
2013-04-18 06:12:00,65.0,65.0,-100.00,East,79,2.0,-999.0,99,0.00,,,-99.99,0.400000,,2013-04-18 10:12:00,
2013-04-18 06:23:00,65.0,65.0,-100.00,East,79,2.0,-999.0,99,0.00,,,-99.99,0.400000,,2013-04-18 10:23:00,
2013-04-18 06:32:00,65.0,65.0,-100.00,ENE,68,2.0,-999.0,99,0.00,,,-99.99,0.400000,,2013-04-18 10:32:00,
2013-04-18 06:42:00,66.0,66.0,-100.00,ENE,62,2.0,-999.0,100,0.00,,,-99.99,0.400000,,2013-04-18 10:42:00,
2013-04-18 06:52:00,66.0,66.0,-100.00,ENE,62,2.0,-999.0,100,0.00,,,-99.99,0.400000,,2013-04-18 10:52:00,
2013-04-18 07:02:00,66.0,66.0,-100.00,ENE,71,3.0,-999.0,100,0.00,,,-99.99,0.500000,,2013-04-18 11:02:00,
2013-04-18 07:12:00,66.0,66.0,-100.00,ENE,66,4.0,-999.0,100,0.00,,,-99.99,2.300000,,2013-04-18 11:12:00,
2013-04-18 07:22:00,66.0,66.0,-100.00,ENE,66,4.0,-999.0,100,0.00,,,-99.99,2.300000,,2013-04-18 11:22:00,
2013-04-18 07:32:00,67.0,67.0,-100.00,ENE,61,3.0,-999.0,100,0.00,,,-99.99,12.700000,,2013-04-18 11:32:00,
2013-04-18 07:42:00,67.0,67.0,-100.00,ENE,60,4.0,-999.0,100,0.00,,,-99.99,43.799999,,2013-04-18 11:42:00,
2013-04-18 07:52:00,67.0,67.0,-100.00,ENE,60,4.0,-999.0,100,0.00,,,-99.99,43.799999,,2013-04-18 11:52:00,
2013-04-18 08:02:00,67.0,67.0,-100.00,East,94,2.0,-999.0,99,0.00,,,-99.99,75.800003,,2013-04-18 12:02:00,
2013-04-18 08:12:00,68.0,68.0,-100.00,ENE,70,4.0,-999.0,99,0.00,,,-99.99,102.000000,,2013-04-18 12:12:00,
2013-04-18 08:22:00,68.0,68.0,-100.00,ENE,70,4.0,-999.0,99,0.00,,,-99.99,102.000000,,2013-04-18 12:22:00,
2013-04-18 08:32:00,68.0,68.0,-100.00,East,91,4.0,-999.0,99,0.00,,,-99.99,168.399994,,2013-04-18 12:32:00,
2013-04-18 08:42:00,69.0,69.0,-100.00,East,86,4.0,-999.0,98,0.00,,,-99.99,248.399994,,2013-04-18 12:42:00,
2013-04-18 08:52:00,69.0,69.0,-100.00,East,86,4.0,-999.0,98,0.00,,,-99.99,248.399994,,2013-04-18 12:52:00,
2013-04-18 09:02:00,71.0,70.0,-100.00,East,94,4.0,-999.0,97,0.00,,,-99.99,292.299988,,2013-04-18 13:02:00,
2013-04-18 09:12:00,71.0,70.0,-100.00,ESE,116,4.0,-999.0,96,0.00,,,-99.99,267.600006,,2013-04-18 13:12:00,
2013-04-18 09:22:00,71.0,70.0,-100.00,ESE,116,4.0,-999.0,96,0.00,,,-99.99,267.600006,,2013-04-18 13:22:00,
2013-04-18 09:32:00,72.0,70.0,-100.00,ESE,121,4.0,-999.0,93,0.00,,,-99.99,344.100006,,2013-04-18 13:32:00,
2013-04-18 09:42:00,74.0,70.0,-100.00,SE,130,4.0,-999.0,89,0.00,,,-99.99,461.200012,,2013-04-18 13:42:00,
2013-04-18 09:53:00,74.0,70.0,-100.00,SE,130,4.0,-999.0,89,0.00,,,-99.99,461.200012,,2013-04-18 13:53:00,
2013-04-18 10:02:00,76.0,70.0,-100.00,SE,133,6.0,-999.0,82,0.00,,,-99.99,497.500000,,2013-04-18 14:02:00,
2013-04-18 10:12:00,77.0,69.0,-100.00,SE,136,6.0,-999.0,77,0.00,,,-99.99,549.500000,,2013-04-18 14:12:00,
2013-04-18 10:22:00,77.0,69.0,-100.00,SE,136,6.0,-999.0,77,0.00,,,-99.99,549.500000,,2013-04-18 14:22:00,
2013-04-18 10:32:00,77.0,68.0,-100.00,ESE,119,8.0,-999.0,73,0.00,,,-99.99,585.900024,,2013-04-18 14:32:00,
2013-04-18 10:42:00,79.0,68.0,-100.00,ESE,111,7.0,-999.0,69,0.00,,,-99.99,670.299988,,2013-04-18 14:42:00,
2013-04-18 10:52:00,79.0,68.0,-100.00,ESE,111,7.0,-999.0,69,0.00,,,-99.99,670.299988,,2013-04-18 14:52:00,
2013-04-18 11:03:00,79.0,67.0,-100.00,SE,136,7.0,-999.0,64,0.00,,,-99.99,746.000000,,2013-04-18 15:03:00,
2013-04-18 11:12:00,79.0,67.0,-100.00,SE,136,7.0,-999.0,64,0.00,,,-99.99,746.000000,,2013-04-18 15:12:00,
2013-04-18 11:22:00,79.0,66.0,-100.00,SSE,149,6.0,-999.0,64,0.00,,,-99.99,526.799988,,2013-04-18 15:22:00,
2013-04-18 11:33:00,79.0,65.0,-100.00,South,171,6.0,-999.0,62,0.00,,,-99.99,399.500000,,2013-04-18 15:33:00,
2013-04-18 11:43:00,79.0,65.0,-100.00,South,171,6.0,-999.0,62,0.00,,,-99.99,399.500000,,2013-04-18 15:43:00,
2013-04-18 11:53:00,79.0,65.0,-100.00,South,175,6.0,-999.0,61,0.00,,,-99.99,540.599976,,2013-04-18 15:53:00,
2013-04-18 12:03:00,80.0,63.0,-100.00,South,171,6.0,-999.0,56,0.00,,,-99.99,317.000000,,2013-04-18 16:03:00,
2013-04-18 12:13:00,81.0,62.0,-100.00,SSE,168,6.0,-999.0,53,0.00,,,-99.99,666.900024,,2013-04-18 16:13:00,
2013-04-18 12:23:00,81.0,62.0,-100.00,SSE,168,6.0,-999.0,53,0.00,,,-99.99,666.900024,,2013-04-18 16:23:00,
2013-04-18 12:33:00,83.0,62.0,-100.00,SSE,151,6.0,-999.0,48,0.00,,,-99.99,933.000000,,2013-04-18 16:33:00,
2013-04-18 12:43:00,83.0,62.0,-100.00,East,101,6.0,-999.0,48,0.00,,,-99.99,711.000000,,2013-04-18 16:43:00,
2013-04-18 12:53:00,83.0,62.0,-100.00,East,101,6.0,-999.0,48,0.00,,,-99.99,711.000000,,2013-04-18 16:53:00,
2013-04-18 13:03:00,83.0,61.0,-100.00,SE,143,8.0,-999.0,47,0.00,,,-99.99,609.599976,,2013-04-18 17:03:00,
2013-04-18 13:12:00,84.0,61.0,-100.00,South,185,5.0,-999.0,45,0.00,,,-99.99,959.000000,,2013-04-18 17:12:00,
2013-04-18 13:22:00,84.0,61.0,-100.00,South,185,5.0,-999.0,45,0.00,,,-99.99,959.000000,,2013-04-18 17:22:00,
2013-04-18 13:33:00,85.0,61.0,-100.00,ESE,121,5.0,-999.0,44,0.00,,,-99.99,899.000000,,2013-04-18 17:33:00,
2013-04-18 13:43:00,85.0,60.0,-100.00,SSE,158,7.0,-999.0,42,0.00,,,-99.99,972.000000,,2013-04-18 17:43:00,
2013-04-18 13:52:00,85.0,60.0,-100.00,SSE,158,7.0,-999.0,42,0.00,,,-99.99,972.000000,,2013-04-18 17:52:00,
2013-04-18 14:02:00,85.0,60.0,-100.00,ESE,107,5.0,-999.0,42,0.00,,,-99.99,658.799988,,2013-04-18 18:02:00,
2013-04-18 14:13:00,85.0,60.0,-100.00,ESE,107,5.0,-999.0,42,0.00,,,-99.99,658.799988,,2013-04-18 18:13:00,
2013-04-18 14:23:00,85.0,60.0,-100.00,ESE,107,5.0,-999.0,42,0.00,,,-99.99,658.799988,,2013-04-18 18:23:00,
2013-04-18 14:32:00,85.0,62.0,-100.00,SE,135,6.0,-999.0,45,0.00,,,-99.99,903.000000,,2013-04-18 18:32:00,
2013-04-18 14:43:00,86.0,60.0,-100.00,SSW,196,5.0,-999.0,42,0.00,,,-99.99,838.000000,,2013-04-18 18:43:00,
2013-04-18 14:53:00,86.0,60.0,-100.00,SSW,196,5.0,-999.0,42,0.00,,,-99.99,838.000000,,2013-04-18 18:53:00,
2013-04-18 15:03:00,86.0,61.0,-100.00,South,190,6.0,-999.0,42,0.00,,,-99.99,744.000000,,2013-04-18 19:03:00,
2013-04-18 15:12:00,88.0,59.0,-100.00,SSW,211,8.0,-999.0,37,0.00,,,-99.99,870.000000,,2013-04-18 19:12:00,
2013-04-18 15:22:00,88.0,59.0,-100.00,SSW,211,8.0,-999.0,37,0.00,,,-99.99,870.000000,,2013-04-18 19:22:00,
2013-04-18 15:32:00,88.0,57.0,-100.00,SSW,212,6.0,-999.0,35,0.00,,,-99.99,831.000000,,2013-04-18 19:32:00,
2013-04-18 15:42:00,87.0,59.0,-100.00,SSW,198,7.0,-999.0,39,0.00,,,-99.99,687.400024,,2013-04-18 19:42:00,
2013-04-18 15:53:00,87.0,59.0,-100.00,SSW,198,7.0,-999.0,39,0.00,,,-99.99,687.400024,,2013-04-18 19:53:00,
2013-04-18 16:02:00,87.0,60.0,-100.00,SW,236,5.0,-999.0,39,0.00,,,-99.99,792.000000,,2013-04-18 20:02:00,
2013-04-18 16:12:00,88.0,60.0,-100.00,SSW,211,5.0,-999.0,38,0.00,,,-99.99,737.000000,,2013-04-18 20:12:00,
2013-04-18 16:22:00,88.0,60.0,-100.00,SSW,211,5.0,-999.0,38,0.00,,,-99.99,737.000000,,2013-04-18 20:22:00,
2013-04-18 16:32:00,88.0,60.0,-100.00,SW,229,5.0,-999.0,38,0.00,,,-99.99,765.000000,,2013-04-18 20:32:00,
2013-04-18 16:42:00,88.0,60.0,-100.00,SW,214,4.0,-999.0,39,0.00,,,-99.99,527.299988,,2013-04-18 20:42:00,
2013-04-18 16:52:00,88.0,60.0,-100.00,SW,214,4.0,-999.0,39,0.00,,,-99.99,527.299988,,2013-04-18 20:52:00,
2013-04-18 17:02:00,87.0,60.0,-100.00,WSW,241,6.0,-999.0,39,0.00,,,-99.99,471.899994,,2013-04-18 21:02:00,
2013-04-18 17:12:00,87.0,61.0,-100.00,WSW,244,5.0,-999.0,41,0.00,,,-99.99,445.600006,,2013-04-18 21:12:00,
2013-04-18 17:22:00,87.0,61.0,-100.00,WSW,244,5.0,-999.0,41,0.00,,,-99.99,445.600006,,2013-04-18 21:22:00,
2013-04-18 17:32:00,87.0,61.0,-100.00,West,261,5.0,-999.0,42,0.00,,,-99.99,292.700012,,2013-04-18 21:32:00,
2013-04-18 17:43:00,88.0,61.0,-100.00,WSW,239,4.0,-999.0,41,0.00,,,-99.99,520.599976,,2013-04-18 21:43:00,
2013-04-18 17:53:00,88.0,61.0,-100.00,WSW,239,4.0,-999.0,41,0.00,,,-99.99,520.599976,,2013-04-18 21:53:00,
2013-04-18 18:02:00,88.0,62.0,-100.00,SSE,167,5.0,-999.0,41,0.00,,,-99.99,414.200012,,2013-04-18 22:02:00,
2013-04-18 18:13:00,88.0,62.0,-100.00,SSE,152,5.0,-999.0,41,0.00,,,-99.99,303.399994,,2013-04-18 22:13:00,
2013-04-18 18:23:00,88.0,62.0,-100.00,SSE,152,5.0,-999.0,41,0.00,,,-99.99,303.399994,,2013-04-18 22:23:00,
2013-04-18 18:32:00,87.0,62.0,-100.00,SE,140,5.0,-999.0,42,0.00,,,-99.99,135.000000,,2013-04-18 22:32:00,
2013-04-18 18:42:00,87.0,62.0,-100.00,SE,140,5.0,-999.0,42,0.00,,,-99.99,135.000000,,2013-04-18 22:42:00,
2013-04-18 18:52:00,86.0,62.0,-100.00,SSE,152,4.0,-999.0,44,0.00,,,-99.99,81.199997,,2013-04-18 22:52:00,
2013-04-18 19:04:00,86.0,63.0,-100.00,SSE,151,4.0,-999.0,45,0.00,,,-99.99,103.400002,,2013-04-18 23:04:00,
2013-04-18 19:12:00,85.0,63.0,-100.00,SSE,167,4.0,-999.0,46,0.00,,,-99.99,82.099998,,2013-04-18 23:12:00,
2013-04-18 19:22:00,85.0,63.0,-100.00,SSE,167,4.0,-999.0,46,0.00,,,-99.99,82.099998,,2013-04-18 23:22:00,
2013-04-18 19:32:00,85.0,63.0,-100.00,South,180,3.0,-999.0,48,0.00,,,-99.99,65.000000,,2013-04-18 23:32:00,
2013-04-18 19:42:00,84.0,63.0,-100.00,South,177,3.0,-999.0,49,0.00,,,-99.99,38.500000,,2013-04-18 23:42:00,
2013-04-18 19:52:00,84.0,63.0,-100.00,South,177,3.0,-999.0,49,0.00,,,-99.99,38.500000,,2013-04-18 23:52:00,
2013-04-18 20:01:00,84.0,63.0,-100.00,South,177,3.0,-999.0,49,0.00,,,-99.99,38.500000,,2013-04-19 00:01:00,
2013-04-18 20:12:00,82.0,65.0,-100.00,ESE,112,5.0,-999.0,55,0.00,,,-99.99,6.000000,,2013-04-19 00:12:00,
2013-04-18 20:22:00,82.0,65.0,-100.00,ESE,112,5.0,-999.0,55,0.00,,,-99.99,6.000000,,2013-04-19 00:22:00,
2013-04-18 20:32:00,81.0,68.0,-100.00,SE,125,10.0,-999.0,64,0.00,,,-99.99,0.700000,,2013-04-19 00:32:00,
2013-04-18 20:42:00,81.0,69.0,-100.00,ESE,109,7.0,-999.0,67,0.00,,,-99.99,0.000000,,2013-04-19 00:42:00,
2013-04-18 20:52:00,81.0,69.0,-100.00,ESE,109,7.0,-999.0,67,0.00,,,-99.99,0.000000,,2013-04-19 00:52:00,
2013-04-18 21:01:00,80.0,69.0,-100.00,ESE,116,9.0,-999.0,69,0.00,,,-99.99,0.000000,,2013-04-19 01:01:00,
2013-04-18 21:11:00,79.0,69.0,-100.00,ESE,115,8.0,-999.0,71,0.00,,,-99.99,0.000000,,2013-04-19 01:11:00,
2013-04-18 21:21:00,79.0,69.0,-100.00,ESE,115,8.0,-999.0,71,0.00,,,-99.99,0.000000,,2013-04-19 01:21:00,
2013-04-18 21:32:00,79.0,69.0,-100.00,ESE,119,7.0,-999.0,73,0.00,,,-99.99,0.000000,,2013-04-19 01:32:00,
2013-04-18 21:42:00,78.0,69.0,-100.00,ESE,123,8.0,-999.0,74,0.00,,,-99.99,0.000000,,2013-04-19 01:42:00,
2013-04-18 21:52:00,78.0,69.0,-100.00,ESE,123,8.0,-999.0,74,0.00,,,-99.99,0.000000,,2013-04-19 01:52:00,
2013-04-18 22:02:00,78.0,69.0,-100.00,ESE,119,9.0,-999.0,74,0.00,,,-99.99,0.000000,,2013-04-19 02:02:00,
2013-04-18 22:11:00,77.0,69.0,-100.00,ESE,110,7.0,-999.0,75,0.00,,,-99.99,0.000000,,2013-04-19 02:11:00,
2013-04-18 22:21:00,77.0,69.0,-100.00,ESE,110,7.0,-999.0,75,0.00,,,-99.99,0.000000,,2013-04-19 02:21:00,
2013-04-18 22:32:00,77.0,69.0,-100.00,ESE,115,8.0,-999.0,75,0.00,,,-99.99,0.000000,,2013-04-19 02:32:00,
2013-04-18 22:42:00,77.0,69.0,-100.00,ESE,116,7.0,-999.0,76,0.00,,,-99.99,0.000000,,2013-04-19 02:42:00,
2013-04-18 22:52:00,77.0,69.0,-100.00,ESE,116,7.0,-999.0,76,0.00,,,-99.99,0.000000,,2013-04-19 02:52:00,
2013-04-18 23:01:00,76.0,69.0,-100.00,ESE,119,7.0,-999.0,77,0.00,,,-99.99,0.000000,,2013-04-19 03:01:00,
2013-04-18 23:12:00,76.0,69.0,-100.00,ESE,118,6.0,-999.0,79,0.00,,,-99.99,0.000000,,2013-04-19 03:12:00,
2013-04-18 23:21:00,76.0,69.0,-100.00,ESE,118,6.0,-999.0,79,0.00,,,-99.99,0.000000,,2013-04-19 03:21:00,
2013-04-18 23:33:00,76.0,70.0,-100.00,SE,125,6.0,-999.0,80,0.00,,,-99.99,0.000000,,2013-04-19 03:33:00,
2013-04-18 23:43:00,76.0,70.0,-100.00,ESE,118,5.0,-999.0,81,0.00,,,-99.99,0.000000,,2013-04-19 03:43:00,
2013-04-18 23:53:00,76.0,70.0,-100.00,ESE,118,5.0,-999.0,81,0.00,,,-99.99,0.000000,,2013-04-19 03:53:00,